Tracking 29059 objects as of 18-Jun-2024
HD Live streaming from Space Station
objects crossing your sky now

USA 324

Track USA 324 now!


NORAD ID: 51280
Int'l Code: 2022-006A
Perigee: 35,815.2 km
Apogee: 35,849.6 km
Inclination: 1.7 °
Period: 1,438.1 minutes
Semi major axis: 42203 km
RCS: Unknown
Launch date: January 21, 2022
Source: United States (US)
Launch site: AIR FORCE EASTERN TEST RANGE (AFETR)
Your satellite tracking list
Your tracking list is empty




NASA's NSSDC Master Catalog

Two Line Element Set (TLE):
1 51280U 22006A   24155.42803545 -.00000007  00000-0  00000+0 0  9991
2 51280   1.7041  88.6513 0004068 353.4952 139.0207  1.00134112  8677
Source of the keplerian elements: McCants